Change the Weather History Date:

Wednesday, September 25, 2013

  Actual Average Record
Temperature  
Mean Temperature 48 °F 50 °F  
Max Temperature 65 °F 62 °F 87 °F (2007)
Min Temperature 31 °F 38 °F 24 °F (1989)
Degree Days  
Heating Degree Days 17 15  
Month to date heating degree days 307 264  
Since 1 July heating degree days 520 504  
Cooling Degree Days 0 0  
Month to date cooling degree days 16 7  
Year to date cooling degree days 187 114  
Moisture  
Dew Point 39 °F    
Average Humidity 74    
Maximum Humidity 100    
Minimum Humidity 48    
Precipitation  
Precipitation 0.00 in 0.11 in 1.42 in (1991)
Month to date precipitation 3.57 2.82  
Year to date precipitation 32.45 27.36  
Sea Level Pressure  
Sea Level Pressure 29.98 in    
Wind  
Wind Speed 2 mph (NNW)    
Max Wind Speed 9 mph    
Max Gust Speed 28 mph    
Visibility 6 miles    
Events Fog    
T = Trace of Precipitation, MM = Missing Value Source: NWS Daily Summary

Daily Weather History Graph

Daily Weather History Graph

Search for Another Location

Airport or City:

Trip Planner

Search our weather history database for the weather conditions in past years. The results will help you decide how hot, cold, wet, or windy it might be!

Date:

Astronomy

Sep. 25, 2013 Rise Set
Actual Time 6:47 AM EDT 6:48 PM EDT
Civil Twilight 6:18 AM EDT 7:17 PM EDT
Nautical Twilight 5:44 AM EDT 7:50 PM EDT
Astronomical Twilight 5:10 AM EDT 8:25 PM EDT
Moon 10:40 PM EDT (9/25) 1:03 PM EDT (9/25)
Length of Visible Light 12h 58m
Length of Day
12h 00m
Waning Gibbous, 64% of the Moon is Illuminated
Sep 25
Waning Gibbous
Sep 26
Last Quarter
Oct 4
New
Oct 11
First Quarter
Oct 18
Full

Hourly Weather History & Observations

Time (EDT) Temp. Windchill Dew Point Humidity Pressure Visibility Wind Dir Wind Speed Gust Speed Precip Events Conditions
12:51 AM 35.1 °F - 34.0 °F 96% 29.99 in 10.0 mi Calm Calm - N/A   Clear
1:51 AM 34.0 °F - 33.1 °F 96% 29.99 in 10.0 mi Calm Calm - N/A   Clear
2:12 AM 33.8 °F - 33.8 °F 100% 29.96 in 10.0 mi Calm Calm - N/A   Scattered Clouds
2:23 AM 32.0 °F - 30.2 °F 93% 29.96 in 10.0 mi Calm Calm - N/A   Mostly Cloudy
2:44 AM 32.0 °F - 30.2 °F 93% 29.95 in 10.0 mi Calm Calm - N/A   Scattered Clouds
2:51 AM 30.9 °F - 30.0 °F 96% 29.98 in 10.0 mi Calm Calm - N/A   Partly Cloudy
3:04 AM 30.2 °F - 30.2 °F 100% 29.95 in 1.2 mi Calm Calm - N/A   Mostly Cloudy
3:10 AM 30.2 °F - 30.2 °F 100% 29.95 in 0.2 mi Calm Calm - N/A Fog Light Freezing Fog
3:51 AM 32.0 °F - 30.9 °F 96% 29.97 in 0.2 mi Calm Calm - N/A Fog Fog
4:51 AM 33.1 °F - 33.1 °F 100% 29.98 in 0.2 mi Calm Calm - N/A Fog Fog
5:40 AM 33.8 °F - 33.8 °F 100% 29.96 in 0.5 mi Calm Calm - N/A Fog Fog
5:51 AM 33.1 °F - 33.1 °F 100% 29.99 in 0.5 mi Calm Calm - N/A Fog Fog
6:01 AM 33.8 °F - 33.8 °F 100% 29.95 in 0.5 mi Calm Calm - N/A Fog Fog
6:09 AM 33.8 °F - 33.8 °F 100% 29.95 in 0.2 mi Calm Calm - N/A Fog Fog
6:51 AM 34.0 °F - 34.0 °F 100% 29.99 in 0.2 mi Calm Calm - N/A Fog Fog
7:15 AM 33.8 °F - 33.8 °F 100% 29.96 in 0.2 mi Calm Calm - N/A Fog Fog
7:43 AM 35.6 °F - 35.6 °F 100% 29.96 in 0.2 mi Calm Calm - N/A Fog Fog
7:51 AM 36.0 °F - 35.1 °F 97% 30.00 in 0.2 mi Calm Calm - N/A Fog Fog
8:51 AM 42.1 °F 40.2 °F 42.1 °F 100% 30.01 in 0.2 mi SW 3.5 mph - N/A Fog Fog
9:18 AM 44.6 °F 42.2 °F 44.6 °F 100% 29.98 in 0.8 mi SW 4.6 mph - N/A   Overcast
9:26 AM 44.6 °F 41.4 °F 44.6 °F 100% 29.98 in 1.5 mi SW 5.8 mph - N/A   Overcast
9:32 AM 44.6 °F 42.2 °F 44.6 °F 100% 29.98 in 3.0 mi WSW 4.6 mph - N/A   Overcast
9:46 AM 44.6 °F - 44.6 °F 100% 29.97 in 10.0 mi Calm Calm - N/A   Mostly Cloudy
9:51 AM 45.0 °F 43.5 °F 45.0 °F 100% 30.01 in 10.0 mi Variable 3.5 mph - N/A   Mostly Cloudy
10:00 AM 46.4 °F 44.3 °F 44.6 °F 93% 29.97 in 10.0 mi Variable 4.6 mph - N/A   Scattered Clouds
10:51 AM 55.0 °F - 44.1 °F 67% 29.99 in 10.0 mi Variable 3.5 mph - N/A   Clear
11:51 AM 59.0 °F - 44.1 °F 58% 29.98 in 10.0 mi Variable 4.6 mph - N/A   Clear
12:51 PM 61.0 °F - 44.1 °F 54% 29.98 in 10.0 mi Calm Calm - N/A   Clear
1:51 PM 63.0 °F - 45.0 °F 52% 29.96 in 10.0 mi Variable 4.6 mph - N/A   Clear
2:51 PM 64.0 °F - 44.1 °F 48% 29.96 in 10.0 mi Variable 6.9 mph - N/A   Clear
3:51 PM 64.0 °F - 45.0 °F 50% 29.95 in 10.0 mi Variable 5.8 mph - N/A   Clear
4:51 PM 63.0 °F - 45.0 °F 52% 29.96 in 10.0 mi Variable 4.6 mph - N/A   Clear
5:51 PM 61.0 °F - 46.0 °F 58% 29.97 in 10.0 mi North 8.1 mph - N/A   Partly Cloudy
6:51 PM 55.9 °F - 46.9 °F 72% 29.99 in 10.0 mi Calm Calm - N/A   Clear
7:51 PM 50.0 °F - 45.0 °F 83% 30.01 in 10.0 mi Calm Calm - N/A   Clear
8:51 PM 48.9 °F - 46.0 °F 90% 30.01 in 10.0 mi NNE 4.6 mph - N/A   Clear
9:51 PM 46.9 °F - 46.0 °F 97% 30.02 in 10.0 mi NE 3.5 mph - N/A   Clear
10:51 PM 45.0 °F - 44.1 °F 97% 30.02 in 7.0 mi Calm Calm - N/A   Clear
11:19 PM 44.6 °F 43.1 °F 42.8 °F 93% 30.01 in 5.0 mi NNE 3.5 mph - N/A   Partly Cloudy
11:51 PM 44.1 °F 42.5 °F 44.1 °F 100% 30.03 in 5.0 mi NNE 3.5 mph - N/A   Clear